[[{"header":{"parameterUnit":"m.s-1","parameterCategory":1,"la1":30.2991,"la2":30.254,"lo1":-89.0895,"lo2":-89.0444,"dy":0.0017,"dx":0.0017,"nx":28,"ny":28,"refTime":"2025-03-07T09:00:00:Z","depth":0,"parameterNumber":2,"parameterNumberName":"U-component_of_WINDS"},"data":[0,0,0,0,0,0,0,0,0,0,0,0,0,0,0,0,0,0,0,0,0,0,0,0,0,0,0,0,0,0,0,0,0,0,0,0,0,0,0,0,0,0,0,0,0,0,0,0,0,0,0,0,0,0,0,0,0,0,-3.9304,-3.9304,0,-3.9298,-3.9298,-3.9298,-3.9196,-3.9193,-3.919,-3.9188,-3.9182,-3.9184,-3.9186,0,0,0,0,0,0,0,0,0,0,0,0,0,-3.9228,-3.923,-3.9304,-3.9304,-3.9304,-3.9298,-3.9298,-3.9298,-3.9196,-3.9193,-3.919,-3.9187,-3.9181,-3.9184,-3.9186,0,0,0,0,0,0,0,0,0,0,0,0,0,-3.9246,-3.9231,-3.9304,-3.9253,-3.9248,-3.9298,-3.9298,-3.9298,-3.9197,-3.9193,-3.9189,-3.9185,-3.918,-3.9183,-3.9187,-3.9286,0,0,-3.9197,-3.9199,0,0,0,0,0,0,0,0,-3.9245,-3.9249,-3.926,-3.9256,-3.9251,-3.9244,-3.9269,-3.9294,-3.9198,-3.9216,-3.9188,-3.9183,-3.9206,-3.9207,-3.9214,-3.9286,-3.9285,-3.9197,-3.92,-3.9201,-3.9202,0,0,0,0,0,0,0,-3.9244,-3.9248,-3.9302,-3.9261,-3.9255,-3.923,-3.9228,-3.9273,-3.9233,-3.9214,-3.9207,-3.9208,-3.9202,-3.9211,-3.9213,-3.9285,-3.9197,-3.92,-3.9202,-3.9204,-3.9437,-3.9441,0,0,0,0,0,0,-3.925,-3.9248,-3.9302,-3.9301,-3.9238,-3.9234,-3.9232,-3.925,-3.9232,-3.9226,-3.9211,-3.9203,-3.9207,-3.9209,-3.9212,-3.9326,-3.9201,-3.9204,-3.9206,-3.9433,-3.9438,-3.9443,0,0,0,0,0,0,-3.9249,-3.9256,-3.9302,-3.9273,-3.9277,-3.924,-3.9261,-3.9252,-3.926,-3.9229,-3.9222,-3.9227,-3.9204,-3.9208,-3.9268,-3.9325,-3.9206,-3.9209,-3.9428,-3.9435,-3.944,-3.9556,0,0,0,0,0,0,-3.9247,-3.9256,-3.9293,-3.9274,-3.9279,-3.9358,-3.9264,-3.9255,-3.9266,-3.9256,-3.9243,-3.9237,-3.9201,-3.9264,-3.9272,-3.9327,-3.9211,-3.9423,-3.9431,-3.9438,-3.9546,-3.9565,-3.9581,0,0,0,0,0,-3.9244,-3.9326,-3.9295,-3.9302,-3.9324,-3.9362,-3.9364,-3.9322,-3.9272,-3.9308,-3.9289,-3.9237,-3.9318,-3.9271,-3.9279,-3.9336,-3.9419,-3.9429,-3.9438,-3.9539,-3.9561,-3.958,0,0,0,0,0,0,-3.9352,-3.9322,-3.9288,-3.9366,-3.9367,-3.9344,-3.9389,-3.9347,-3.9362,-3.9352,-3.9299,-3.9297,-3.9365,-3.9357,-3.9305,-3.9431,-3.9359,-3.9371,-3.9433,-3.9455,-3.9471,-3.9471,-3.9214,0,0,0,0,0,-3.9385,-3.9417,-3.939,-3.9461,-3.9463,-3.9427,-3.9441,-3.9409,-3.9408,-3.9408,-3.9392,-3.9393,-3.9419,-3.9436,-3.9458,-3.9546,-3.9541,-3.9589,-3.9606,-3.962,-3.963,-3.9675,-3.9696,-3.9473,-3.9473,-3.9473,0,0,-3.9452,-3.944,-3.9464,-3.9482,-3.9479,-3.9514,-3.9428,-3.9468,-3.9493,-3.9414,-3.9469,-3.9459,-3.9456,-3.9531,-3.9563,-3.9526,-3.9691,-3.9632,-3.9644,-3.9646,-3.9687,-3.9708,-3.9727,-3.948,-3.9479,-3.9478,0,0,-3.9593,-3.9588,-3.9646,-3.9645,-3.9642,-3.9617,-3.9631,-3.9615,-3.9605,-3.966,-3.9601,-3.963,-3.9676,-3.9676,-3.9682,-3.9825,-3.9778,-3.9834,-3.9922,-3.9966,-3.9984,-3.9999,-4.0049,-4.0067,-3.9844,-3.9844,-3.9845,0,-3.9678,-3.9728,-3.9682,-3.9726,-3.9735,-3.9665,-3.9724,-3.9725,-3.9729,-3.9737,-3.9697,-3.9751,-3.9745,-3.9818,-3.9853,-3.9861,-3.9875,-3.9834,-3.9985,-4.0,-4.0013,-4.006,-4.0079,-3.9851,-3.985,-3.985,-3.9849,0,-3.9831,-3.9867,-3.9914,-3.992,-3.9935,-3.9986,-3.9948,-3.9969,-3.9936,-3.9915,-3.9973,-3.9963,-3.9981,-3.9996,-3.9964,-4.0065,-4.0042,-3.9995,-3.9921,-4.0042,-4.0085,-4.0102,-3.9861,-3.9858,-3.9856,-3.9855,0,0,-4.0038,-4.0018,-4.0036,-4.0037,-4.0029,-4.0055,-4.0104,-4.0121,-4.014,-4.0146,-4.0184,-4.0225,-4.018,-4.0188,-4.0155,-4.0195,-4.0306,-4.0141,-4.0141,-4.0171,-4.0415,-4.045,-4.0471,-4.0276,-4.0279,-4.0282,-4.0415,0,-4.0172,-4.0253,-4.0213,-4.0299,-4.0331,-4.0265,-4.0307,-4.0307,-4.029,-4.0314,-4.0295,-4.0324,-4.0264,-4.0268,-4.0304,-4.0285,-4.0354,-4.0275,-4.0311,-4.0312,-4.0311,-4.0494,-4.053,-4.0656,-4.0432,-4.0434,-4.0436,0,-4.034,-4.0352,-4.0441,-4.0426,-4.0438,-4.0476,-4.0489,-4.0514,-4.0512,-4.0497,-4.0506,-4.0464,-4.0511,-4.044,-4.0503,-4.045,-4.0462,-4.0456,-4.0459,-4.0459,-4.038,-4.0497,-4.0695,-4.0713,-4.0463,-4.0461,-4.0459,0,-4.0479,-4.0519,-4.0576,-4.058,-4.0565,-4.0593,-4.0588,-4.0583,-4.0596,-4.0608,-4.0615,-4.0633,-4.0642,-4.0657,-4.0621,-4.0573,-4.0688,-4.0615,-4.0676,-4.0677,-4.0701,-4.07,-4.0903,-4.0714,-4.0713,-4.0713,-4.0713,0,-4.0633,-4.0689,-4.0639,-4.0674,-4.0735,-4.069,-4.0752,-4.074,-4.0736,-4.0767,-4.0713,-4.0744,-4.0696,-4.0723,-4.0695,-4.0751,-4.0756,-4.0744,-4.0736,-4.0748,-4.0749,-4.0754,-4.0743,-4.0718,-4.0717,-4.0716,-4.0715,0,-4.0798,-4.0767,-4.0825,-4.0806,-4.0803,-4.0849,-4.0832,-4.0864,-4.0844,-4.0885,-4.0892,-4.086,-4.0888,-4.0855,-4.0881,-4.0862,-4.0937,-4.0917,-4.0937,-4.0931,-4.0993,-4.0987,-4.1204,-4.1229,-4.1026,-4.1028,-4.103,0,-4.0897,-4.0938,-4.0924,-4.0941,-4.0939,-4.0968,-4.0981,-4.0939,-4.0955,-4.0956,-4.0988,-4.1012,-4.1028,-4.1077,-4.1056,-4.1075,-4.1053,-4.1128,-4.1056,-4.1066,-4.1052,-4.1049,-4.1052,-4.1142,-4.1145,-4.1147,-4.1148,0,-4.1074,-4.1057,-4.1078,-4.1093,-4.1111,-4.1121,-4.1127,-4.1145,-4.11,-4.1121,-4.1149,-4.1162,-4.1188,-4.1212,-4.1226,-4.1221,-4.1177,-4.1172,-4.1187,-4.1198,-4.1207,-4.1201,-4.0975,-4.1166,-4.1165,-4.1163,-4.1162,-4.1162,-4.1208,-4.1241,-4.1236,-4.1261,-4.1262,-4.1269,-4.1297,-4.1281,-4.1303,-4.1321,-4.1295,-4.133,-4.1327,-4.1341,-4.1341,-4.1368,-4.1336,-4.1358,-4.1363,-4.1368,-4.1377,-4.1205,-4.1371,-4.137,-4.137,-4.1369,-4.1369,0,-4.1381,-4.1375,-4.1398,-4.1408,-4.1428,-4.1386,-4.1391,-4.141,-4.1441,-4.1443,-4.146,-4.1492,-4.1516,-4.1497,-4.1516,-4.1541,-4.1522,-4.1548,-4.1544,-4.1543,-4.1406,-4.139,-4.1563,-4.1563,-4.1563,-4.1563,-4.1563,-4.1563,-4.1473,-4.1527,-4.1509,-4.1563,-4.1557,-4.159,-4.1596,-4.1603,-4.1603,-4.1641,-4.166,-4.1648,-4.1641,-4.166,-4.1679,-4.1673,-4.1682,-4.1715,-4.1701,-4.1572,-4.1553,-4.1535,-4.152,-4.1718,-4.1718,-4.1836,-4.1838,-4.1838]},{"header":{"parameterUnit":"m.s-1","parameterCategory":1,"la1":30.2991,"la2":30.254,"lo1":-89.0895,"lo2":-89.0444,"dy":0.0017,"dx":0.0017,"nx":28,"ny":28,"refTime":"2025-03-07T09:00:00:Z","depth":0,"parameterNumber":3,"parameterNumberName":"V-component_of_WINDS"},"data":[0,0,0,0,0,0,0,0,0,0,0,0,0,0,0,0,0,0,0,0,0,0,0,0,0,0,0,0,0,0,0,0,0,0,0,0,0,0,0,0,0,0,0,0,0,0,0,0,0,0,0,0,0,0,0,0,0,0,0.2459,0.2459,0,0.2469,0.2469,0.2469,0.248,0.248,0.248,0.248,0.2488,0.2488,0.2488,0,0,0,0,0,0,0,0,0,0,0,0,0,0.2449,0.2449,0.2459,0.2459,0.2459,0.2469,0.2469,0.2469,0.248,0.248,0.248,0.248,0.2488,0.2488,0.2488,0,0,0,0,0,0,0,0,0,0,0,0,0,0.2455,0.2449,0.2459,0.2466,0.2466,0.2469,0.2469,0.2469,0.248,0.248,0.248,0.2481,0.2488,0.2488,0.2488,0.2484,0,0,0.2489,0.2489,0,0,0,0,0,0,0,0,0.2455,0.2456,0.2465,0.2465,0.2466,0.2473,0.2468,0.2474,0.248,0.2475,0.248,0.2481,0.2483,0.2483,0.2485,0.2484,0.2485,0.2489,0.2489,0.2489,0.2489,0,0,0,0,0,0,0,0.2454,0.2455,0.2463,0.2465,0.2466,0.2468,0.2469,0.2469,0.2477,0.2475,0.2476,0.2477,0.2483,0.2485,0.2485,0.2485,0.2489,0.2489,0.2489,0.2489,0.2483,0.2483,0,0,0,0,0,0,0.2453,0.2455,0.2462,0.2463,0.2461,0.2468,0.2469,0.2471,0.2477,0.2479,0.2477,0.2478,0.2484,0.2485,0.2485,0.2482,0.2489,0.2489,0.2489,0.2483,0.2483,0.2483,0,0,0,0,0,0,0.2453,0.2454,0.2462,0.2459,0.246,0.2468,0.2469,0.2471,0.2472,0.2479,0.248,0.2477,0.2485,0.2485,0.2485,0.2482,0.2489,0.2489,0.2484,0.2483,0.2483,0.2474,0,0,0,0,0,0,0.2452,0.2453,0.2452,0.2459,0.2461,0.2461,0.2469,0.2471,0.2472,0.2473,0.2479,0.248,0.2485,0.2485,0.2485,0.2482,0.2489,0.2484,0.2483,0.2483,0.2474,0.2473,0.2472,0,0,0,0,0,0.2452,0.2448,0.2452,0.2453,0.2459,0.2461,0.2462,0.2468,0.2472,0.2471,0.2475,0.248,0.2482,0.2484,0.2485,0.2482,0.2484,0.2484,0.2483,0.2475,0.2474,0.2472,0,0,0,0,0,0,0.2439,0.2449,0.2453,0.2451,0.2456,0.2463,0.2461,0.2466,0.2469,0.247,0.2477,0.2478,0.2477,0.248,0.2482,0.2479,0.2484,0.2484,0.2478,0.2476,0.2475,0.2475,0.2489,0,0,0,0,0,0.2436,0.2438,0.2446,0.2444,0.2446,0.2453,0.2455,0.2459,0.2464,0.2465,0.2469,0.2473,0.2475,0.2476,0.2478,0.2475,0.2477,0.2474,0.2473,0.2472,0.2471,0.2472,0.2471,0.2481,0.2481,0.2481,0,0,0.243,0.2435,0.2436,0.2441,0.2445,0.2447,0.2455,0.2455,0.2457,0.2465,0.2465,0.2469,0.2473,0.2472,0.2472,0.2474,0.2469,0.2471,0.247,0.247,0.2471,0.247,0.2469,0.2481,0.2481,0.2481,0,0,0.2419,0.2423,0.2423,0.2427,0.2433,0.2438,0.2438,0.2445,0.2449,0.2449,0.2456,0.2458,0.246,0.2464,0.2466,0.2459,0.2463,0.2459,0.2453,0.2454,0.2453,0.2452,0.245,0.245,0.2459,0.2459,0.2459,0,0.241,0.2413,0.2421,0.2422,0.2425,0.2434,0.2434,0.2437,0.2443,0.2445,0.2448,0.2453,0.2456,0.2457,0.2456,0.2457,0.2457,0.2458,0.2452,0.2452,0.2451,0.245,0.2449,0.2458,0.2458,0.2458,0.2458,0,0.2402,0.2405,0.2403,0.2411,0.2413,0.2413,0.2422,0.2423,0.2428,0.2433,0.2435,0.244,0.2444,0.2444,0.2448,0.2446,0.2447,0.2451,0.2456,0.245,0.2448,0.2448,0.2457,0.2458,0.2458,0.2458,0,0,0.2382,0.2396,0.2395,0.2399,0.2408,0.241,0.2411,0.2416,0.2417,0.2422,0.2423,0.2426,0.2431,0.2433,0.2438,0.2438,0.2434,0.2442,0.2443,0.2441,0.2432,0.243,0.2429,0.2437,0.2437,0.2437,0.2432,0,0.2374,0.2377,0.2385,0.2386,0.2389,0.2398,0.2399,0.2405,0.241,0.2413,0.2418,0.2421,0.2426,0.2428,0.2429,0.2434,0.2432,0.2435,0.2438,0.2439,0.2437,0.2428,0.2425,0.242,0.2432,0.2432,0.2432,0,0.2363,0.2369,0.237,0.238,0.2382,0.2383,0.2389,0.2391,0.2398,0.2402,0.2406,0.2412,0.2414,0.2419,0.2422,0.2424,0.2426,0.2429,0.2429,0.243,0.2435,0.2429,0.2418,0.2418,0.2431,0.2431,0.2431,0,0.235,0.2357,0.236,0.2363,0.2374,0.2375,0.238,0.2387,0.239,0.2395,0.2397,0.2402,0.2405,0.2409,0.2416,0.2419,0.2419,0.2424,0.2422,0.2422,0.2422,0.2421,0.2412,0.2423,0.2423,0.2423,0.2423,0,0.2339,0.234,0.2354,0.2355,0.2357,0.2366,0.2367,0.2373,0.238,0.2382,0.2391,0.2393,0.2402,0.2406,0.2412,0.2414,0.2415,0.2418,0.242,0.2418,0.2418,0.2419,0.242,0.2423,0.2423,0.2423,0.2423,0,0.2324,0.2334,0.2337,0.2348,0.2351,0.2352,0.2361,0.2363,0.237,0.2373,0.2374,0.2384,0.2389,0.2397,0.2404,0.2408,0.2409,0.2412,0.2407,0.2408,0.2406,0.2407,0.2398,0.2397,0.2408,0.2408,0.2408,0,0.2317,0.2318,0.233,0.2333,0.2338,0.2342,0.2346,0.2356,0.2359,0.2368,0.2369,0.2375,0.238,0.2387,0.2395,0.24,0.2403,0.24,0.2404,0.2402,0.2404,0.2404,0.2404,0.2399,0.2398,0.2398,0.2398,0,0.2303,0.2309,0.2314,0.2321,0.2326,0.2332,0.2338,0.234,0.2352,0.2355,0.2361,0.2365,0.2373,0.2379,0.2386,0.239,0.2396,0.2397,0.2397,0.2395,0.2393,0.2395,0.2405,0.2397,0.2397,0.2397,0.2397,0.2397,0.2292,0.2294,0.2304,0.231,0.2316,0.2322,0.2325,0.2333,0.2338,0.2346,0.2351,0.2357,0.2365,0.2375,0.238,0.2384,0.2387,0.2387,0.2387,0.2387,0.2386,0.2392,0.2386,0.2386,0.2386,0.2386,0.2386,0,0.228,0.2287,0.2293,0.2302,0.2307,0.2314,0.2322,0.2325,0.233,0.2338,0.2343,0.235,0.2357,0.2365,0.2372,0.2374,0.2377,0.2376,0.2376,0.2377,0.2383,0.2383,0.2373,0.2373,0.2373,0.2373,0.2373,0.2373,0.2274,0.2278,0.2285,0.2292,0.2299,0.2305,0.231,0.2316,0.2322,0.233,0.2335,0.2342,0.235,0.2358,0.2364,0.2366,0.2368,0.2366,0.2369,0.2375,0.2376,0.2377,0.2377,0.2366,0.2366,0.2363,0.2363,0.2363]}]]